Theta_e
311 309 307 306 304 303 302 303 303 302 302 304 304 306 305 305 306 307 307 310 310 310 309 311 311 314 313 312 314 312 313 316 318 322 328 327 328 327 330 325 324 323 327 326 325 329 332 332 334 333 328 328 329 331
310 308 306 305 304 303 302 303 302 302 301 303 304 306 304 304 305 306 307 306 307 309 308 310 311 311 311 312 311 309 312 314 315 319 321 320 325 327 329 331 328 333 328 332 328 326 328 330 330 328 325 327 332 332
309 307 306 304 304 302 303 302 302 301 301 302 303 306 304 304 304 304 306 306 309 308 307 306 309 312 312 312 312 312 310 312 313 314 317 320 324 325 327 327 330 329 327 330 327 329 330 327 329 329 328 328 328 328
308 306 305 304 303 303 303 302 302 301 301 301 303 304 304 303 303 304 304 304 306 309 314 309 311 311 312 312 312 312 312 312 311 311 317 318 321 319 324 325 325 324 327 328 327 326 325 330 330 328 330 329 328 330
307 306 304 304 303 302 302 302 302 301 301 301 301 303 304 303 303 303 305 308 307 309 315 313 309 311 310 311 311 311 311 310 313 314 314 316 316 318 316 318 320 325 325 326 327 324 324 324 324 327 329 329 328 331
306 305 304 303 303 302 302 302 301 301 301 300 300 301 303 303 303 304 305 311 310 308 310 308 305 307 311 313 313 310 310 309 311 316 316 314 315 317 318 319 317 317 322 322 324 323 323 324 325 328 328 328 328 332
305 304 303 303 302 302 302 301 301 301 301 300 300 301 302 303 303 303 305 310 310 309 306 312 309 310 312 318 317 317 316 313 314 316 316 318 316 317 318 321 317 317 317 323 323 325 327 326 327 326 327 327 329 333
304 303 303 302 302 302 302 301 301 301 300 300 301 303 305 306 305 306 310 311 308 305 307 313 311 310 312 317 317 315 318 313 315 316 315 317 314 316 320 320 317 316 316 316 316 320 322 322 323 325 327 328 331 334
304 303 303 302 302 302 301 300 300 300 300 302 308 310 308 307 306 310 311 311 309 309 308 312 316 312 308 311 311 314 314 318 315 318 317 316 318 318 319 316 316 316 316 317 317 318 318 321 323 326 328 330 332 332
304 303 302 302 302 301 300 299 299 300 302 308 310 310 307 311 309 312 313 312 310 311 310 314 312 315 309 311 319 319 315 318 321 319 318 318 319 318 319 319 315 317 317 316 318 320 321 322 324 325 326 329 330 330
304 303 302 302 302 300 299 299 299 300 307 306 302 306 307 307 311 312 311 314 314 316 311 311 311 314 313 318 319 315 318 317 325 323 327 326 325 326 322 323 322 321 320 317 316 318 317 322 323 326 329 330 331 331
303 303 303 303 301 299 298 299 300 300 301 301 302 303 305 306 312 316 316 314 316 320 318 314 316 312 313 315 320 319 324 324 327 323 326 327 327 321 320 322 323 324 323 322 317 318 320 322 323 326 330 332 332 332
303 303 303 302 300 298 298 300 301 301 303 306 306 308 306 309 314 318 317 321 320 319 317 318 317 318 316 318 322 323 326 326 324 326 326 326 325 324 322 324 325 324 323 324 323 324 321 324 328 328 328 330 332 332
303 303 303 301 299 298 300 302 303 303 304 308 311 311 311 311 312 316 316 316 312 316 317 313 314 320 319 321 323 326 324 324 325 321 325 326 326 325 325 328 329 327 326 326 327 327 324 327 328 328 330 332 332 332
303 303 301 299 300 300 302 302 303 303 306 309 310 312 311 308 309 312 313 314 313 313 316 315 316 317 321 323 324 325 324 325 323 323 325 324 323 324 326 327 327 327 325 324 321 324 328 329 328 329 331 332 332 331
303 301 300 302 303 303 304 303 304 304 306 306 307 309 308 309 309 310 312 311 308 312 313 314 320 321 323 324 326 322 324 328 326 324 322 322 324 325 327 328 327 328 326 324 326 330 332 330 331 331 332 331 331 331
301 301 305 304 303 303 304 304 307 307 306 309 308 305 307 307 308 308 311 312 310 311 317 319 319 321 318 324 324 323 325 323 321 321 322 324 325 326 326 326 329 328 328 325 328 330 330 331 332 332 332 331 331 332
300 303 304 304 302 306 307 305 306 309 311 310 308 307 306 306 308 311 312 311 311 311 315 319 316 319 320 323 323 321 320 319 319 321 321 321 322 324 325 326 329 328 327 326 329 329 330 332 333 330 328 330 330 328
302 305 305 303 301 303 305 307 305 307 307 305 304 304 305 306 306 311 312 311 309 310 313 314 316 317 317 318 319 319 319 319 320 319 320 320 322 324 325 325 328 328 326 325 326 328 328 329 328 329 328 329 326 327
303 304 303 302 301 304 307 306 308 306 308 306 304 306 306 307 308 308 308 309 312 314 315 316 314 314 315 317 317 318 318 318 318 320 321 322 322 323 324 325 328 329 328 327 325 327 327 328 328 327 328 328 328 327
299 301 301 300 301 301 301 305 304 306 307 308 306 307 308 306 308 309 309 308 313 313 315 313 313 313 315 316 316 315 316 316 318 319 321 322 324 323 322 325 327 326 327 325 325 324 326 329 329 327 327 326 325 326
304 303 302 301 302 304 303 305 304 304 305 305 305 306 307 309 312 312 310 311 311 313 311 312 313 313 313 312 313 314 315 316 317 318 320 321 321 322 322 323 324 325 328 327 324 324 327 327 328 327 326 324 327 325
304 304 305 304 304 303 303 306 307 306 309 311 308 312 312 314 315 312 315 314 318 319 317 312 316 317 312 314 314 315 317 319 319 322 321 322 323 324 325 326 326 325 323 326 328 328 325 325 323 323 323 322 321 321
304 304 305 307 306 304 304 308 309 308 311 312 311 314 314 313 312 315 318 317 319 315 312 313 315 318 318 318 319 320 322 323 318 319 319 322 323 323 326 326 326 324 323 322 322 322 321 320 319 318 317 317 316 316
302 301 302 302 306 311 309 308 308 308 309 310 313 311 310 311 314 316 319 321 321 317 312 311 312 313 317 318 318 320 324 324 318 320 324 325 325 324 322 322 323 323 323 321 318 317 316 316 315 314 314 314 313 313
305 304 302 306 306 307 308 311 314 312 309 314 311 312 312 314 318 319 320 320 319 316 314 311 311 312 314 317 321 322 322 325 324 321 325 326 326 322 318 318 320 322 320 320 318 315 314 314 314 313 313 313 313 312
303 306 303 301 303 306 307 307 307 310 313 315 314 313 313 317 319 318 319 316 317 314 313 313 313 311 312 315 318 321 325 324 325 326 327 326 326 325 322 322 321 320 318 317 317 316 315 315 315 315 315 315 314 313
305 303 305 304 304 304 307 307 309 311 311 311 311 314 317 317 318 316 316 318 317 314 313 314 315 314 315 317 322 326 326 323 324 324 324 322 322 325 325 324 320 318 317 317 317 317 316 317 317 317 316 314 313 313
304 303 303 305 305 307 307 308 308 307 309 310 312 313 313 312 312 311 313 313 313 313 313 313 315 316 318 320 323 325 326 323 321 321 322 319 318 320 320 320 319 318 318 317 318 317 318 317 315 314 313 312 314 315
303 301 304 306 307 308 307 307 310 311 311 312 311 311 311 312 313 313 313 313 312 313 314 315 317 317 317 321 322 324 324 324 322 321 320 321 319 320 320 318 318 318 317 316 316 316 315 314 314 314 314 314 315 316
301 301 303 304 306 306 307 308 309 311 312 312 312 312 315 315 314 315 315 315 314 314 315 318 321 323 323 323 320 319 320 323 323 322 323 322 320 317 315 315 316 316 316 316 316 316 315 315 315 315 315 316 315 315
302 304 304 306 306 308 311 313 313 314 313 314 315 315 316 317 319 318 319 320 316 318 321 323 323 323 323 322 322 323 324 323 321 321 322 322 321 319 315 314 315 316 316 317 318 319 320 320 320 320 320 319 319 319
304 304 305 308 311 314 313 312 314 315 316 317 319 319 318 320 321 318 323 324 324 324 324 323 322 321 321 322 320 320 322 320 317 317 317 317 316 316 316 315 315 315 315 316 317 318 320 320 320 320 319 320 320 318
Wind_Speed
12 10 9 8 9 10 10 11 13 14 13 13 13 15 15 15 14 14 8 4 4 3 6 7 6 5 2 1 2 5 7 3 4 4 1 2 2 2 2 3 4 4 4 3 2 2 5 5 5 3 3 2 5 7
11 10 9 8 8 9 10 12 12 12 12 12 13 13 14 13 13 13 5 10 12 5 6 23 25 28 24 19 5 3 4 1 3 2 2 2 2 2 1 2 3 2 4 3 7 4 4 3 2 3 2 2 2 5
10 9 9 8 9 9 10 11 11 12 12 12 12 13 12 13 12 11 10 13 7 3 6 3 5 8 6 19 25 4 3 5 4 2 1 2 3 2 1 4 1 3 3 1 3 3 6 5 3 3 4 4 4 5
10 9 9 9 9 9 10 10 11 12 13 13 12 13 13 14 14 13 13 13 7 5 3 6 9 24 19 14 19 33 15 6 2 3 1 3 2 4 3 4 3 5 1 1 4 5 6 3 4 5 4 6 9 10
10 9 9 9 8 9 10 11 12 13 13 14 14 14 14 15 16 16 16 8 7 3 3 7 22 10 15 14 20 28 22 8 4 2 3 4 3 1 3 1 4 4 6 4 5 5 4 6 5 3 5 5 7 7
10 10 9 8 8 9 10 12 13 14 15 15 15 15 15 15 16 9 3 4 7 1 2 4 6 7 20 16 9 9 11 5 4 4 4 4 5 5 4 5 5 8 7 9 9 6 7 8 7 4 3 4 7 9
10 10 10 8 9 9 11 13 14 16 17 17 17 16 15 13 13 4 4 2 6 9 2 4 5 5 12 8 3 1 6 4 4 3 4 7 4 5 4 14 10 8 10 8 8 4 4 5 6 5 5 6 8 10
10 10 9 9 10 10 12 14 17 17 18 18 18 17 16 13 12 9 2 3 9 4 2 3 4 5 6 4 4 2 2 2 3 4 1 4 2 3 6 18 9 12 14 15 11 10 11 7 5 8 5 4 7 7
11 10 10 9 9 11 13 15 16 17 18 17 15 12 2 2 2 4 4 3 5 1 2 2 2 4 5 3 3 3 1 2 2 3 3 4 4 5 7 7 8 11 11 15 13 12 10 8 11 11 7 7 7 6
11 10 10 10 9 10 12 14 15 17 17 10 4 2 2 1 9 2 2 1 1 2 1 3 2 3 2 2 3 3 0 2 2 4 1 3 4 7 1 3 6 8 9 9 6 6 7 6 9 12 11 11 9 4
11 10 10 10 10 10 11 12 14 17 5 3 6 2 8 9 2 2 2 2 1 2 3 4 4 3 2 3 3 3 3 2 2 3 2 2 3 3 11 12 8 8 8 12 14 12 10 8 7 7 9 9 9 8
11 10 10 10 10 10 10 9 11 10 5 8 9 8 5 2 1 2 2 0 2 3 3 3 4 5 4 3 3 3 3 1 5 3 3 3 3 8 12 14 12 11 8 8 10 15 11 9 8 7 7 9 11 14
11 11 10 9 10 10 7 8 9 8 9 1 1 2 2 2 1 3 2 2 3 3 4 3 4 2 3 3 3 2 3 4 3 2 3 4 4 11 18 16 14 9 8 9 9 8 8 10 8 7 6 13 10 15
11 10 9 10 10 8 5 6 4 4 2 1 1 4 3 3 4 4 3 2 5 4 4 3 3 2 2 2 3 3 3 3 4 3 4 6 13 20 14 7 6 9 9 10 13 11 13 11 9 12 14 15 14 10
11 8 8 9 5 4 2 2 3 2 2 2 2 4 5 4 4 4 4 2 3 2 2 3 2 1 2 3 2 3 5 3 3 4 4 10 19 18 14 11 8 8 7 5 5 9 9 8 11 9 17 18 16 14
9 6 6 4 2 1 2 2 1 2 2 2 3 3 4 1 4 4 2 4 3 2 1 1 2 2 3 3 3 2 3 3 4 5 11 14 15 15 15 12 11 8 6 2 5 5 6 7 8 10 20 16 14 20
10 5 5 3 2 3 3 2 2 3 3 4 4 3 4 4 5 4 2 4 1 2 2 1 2 3 3 3 4 2 3 6 11 12 12 15 17 15 15 11 9 6 3 6 7 4 6 12 13 9 7 8 11 16
6 8 6 3 2 1 2 4 2 3 5 5 3 4 3 4 4 5 4 3 2 2 1 3 0 1 2 2 3 3 4 8 10 10 12 16 16 15 11 8 8 10 6 6 6 14 9 8 4 3 4 4 3 19
11 8 5 2 1 1 1 3 4 3 4 3 4 3 3 4 4 7 6 5 4 3 1 0 2 3 3 4 4 4 5 6 9 11 13 16 13 11 14 16 11 10 11 8 8 5 7 9 8 6 4 6 9 12
10 8 4 2 1 0 2 3 4 3 3 3 2 4 3 4 4 4 4 3 2 2 1 3 4 4 4 4 4 4 6 7 6 10 11 11 13 16 10 5 1 5 9 13 17 17 13 12 10 4 10 11 9 7
9 8 6 5 2 4 2 2 3 3 3 3 3 1 4 2 3 3 4 2 3 3 4 5 5 5 7 11 14 7 7 5 8 4 6 8 11 14 12 7 9 6 5 4 4 4 8 7 10 8 11 15 11 5
4 8 4 5 2 3 3 7 3 4 2 4 4 2 3 3 3 3 1 1 3 3 3 3 4 6 6 7 9 12 16 18 12 11 16 14 5 5 4 9 6 4 1 2 5 4 8 11 10 8 9 18 22 19
6 7 2 4 2 2 6 4 2 3 2 3 2 3 3 3 3 2 2 2 1 2 5 3 7 11 9 18 17 20 16 15 5 4 6 6 4 7 9 11 7 5 4 9 6 9 13 14 13 15 14 15 19 24
4 4 2 4 4 4 2 3 3 2 3 2 2 4 4 3 3 1 2 1 1 3 4 7 7 7 6 4 3 4 12 13 8 9 6 2 2 7 11 13 13 13 12 17 20 18 15 15 15 14 14 20 23 24
3 4 4 4 2 3 3 3 3 1 3 2 2 4 3 2 1 2 2 2 2 2 3 5 3 2 3 4 4 8 15 16 5 3 8 8 12 9 11 15 15 12 10 19 15 17 18 19 20 21 20 21 24 23
3 4 6 4 3 4 4 3 2 3 3 3 4 3 2 1 2 4 2 2 2 2 2 3 3 5 6 5 6 7 19 23 13 2 3 10 8 9 4 4 3 9 10 14 18 19 19 20 22 23 23 25 29 29
3 4 4 3 2 2 2 3 2 1 3 3 2 2 2 2 4 3 1 2 3 4 5 9 9 5 5 11 19 22 21 8 6 9 10 9 7 5 11 10 5 7 9 15 19 22 23 21 22 22 21 21 20 22
4 2 5 3 3 2 3 2 2 3 4 2 2 2 3 4 3 2 4 5 10 16 18 19 18 14 13 13 12 9 8 8 19 20 21 20 15 15 17 15 14 15 18 18 22 26 28 24 21 22 23 22 22 25
3 2 2 3 3 4 5 6 5 3 3 3 3 3 4 4 3 4 15 21 22 19 15 13 19 11 9 10 10 9 12 11 5 8 8 4 4 11 17 18 18 19 22 24 21 22 20 21 22 24 26 28 26 23
4 4 3 3 4 4 4 5 3 3 3 4 3 3 3 5 20 25 25 22 15 13 16 15 14 11 9 5 4 7 10 17 7 9 5 5 7 17 19 20 23 25 24 23 22 21 21 22 22 22 21 19 16 15
2 3 4 3 3 3 5 4 4 3 2 4 4 5 8 5 14 17 14 16 16 13 10 7 9 10 9 7 6 6 5 6 10 12 17 22 22 23 23 25 24 24 24 23 22 20 18 16 15 14 12 11 9 8
4 6 4 4 4 3 2 1 2 2 3 2 3 1 2 2 3 3 3 3 7 6 7 7 7 7 7 10 11 10 16 23 21 20 22 22 21 19 20 21 19 18 17 16 14 13 12 11 10 9 10 9 7 6
3 3 4 2 2 2 1 2 3 4 3 3 3 4 5 4 4 3 1 1 1 5 9 10 7 15 21 26 28 27 28 26 24 23 23 23 21 19 17 16 15 14 12 12 12 9 9 7 8 9 8 7 9 7
Wind_Direction
289 292 291 295 306 317 324 331 335 337 340 342 350 355 355 356 358 350 309 44 360 271 274 237 265 242 291 145 190 320 338 350 333 26 15 282 233 270 296 238 279 191 162 199 106 143 239 345 310 181 180 8 302 330
289 289 280 287 299 312 320 328 333 336 337 339 344 346 350 350 354 349 312 325 327 216 251 287 271 261 250 247 250 226 231 348 259 359 336 317 321 316 124 281 336 237 194 207 189 218 238 309 7 297 301 190 326 307
268 272 270 280 298 307 317 324 329 332 333 334 336 338 338 341 342 340 314 324 331 280 295 336 265 286 257 243 227 181 251 218 265 203 330 264 266 124 226 248 306 314 182 217 17 282 261 299 267 231 271 292 316 358
268 264 265 280 294 304 314 319 324 328 329 329 329 329 329 329 330 323 309 299 289 267 290 281 297 289 289 265 226 212 233 251 230 82 226 260 243 183 228 225 163 219 170 240 284 272 278 272 234 295 305 307 338 356
261 255 261 276 288 303 310 316 320 323 322 325 322 320 323 325 324 317 303 293 215 226 291 290 310 285 308 284 230 221 226 213 215 196 198 228 220 221 238 67 225 180 203 187 230 239 180 253 279 263 301 315 319 327
253 251 256 268 287 300 310 316 318 319 318 320 320 317 318 324 324 335 354 58 99 43 335 310 301 291 304 311 244 199 204 194 193 184 211 228 233 168 231 229 225 206 212 212 240 226 206 249 278 254 263 275 286 292
248 249 259 269 284 299 310 314 317 317 316 317 316 315 312 313 304 249 239 194 243 338 8 297 297 274 304 310 301 285 191 210 188 215 231 242 236 165 249 258 244 221 230 231 219 180 250 232 250 233 217 260 281 287
235 245 258 275 287 299 310 315 316 317 316 317 315 311 305 295 280 289 321 304 239 193 209 283 277 326 359 313 317 352 287 337 246 222 246 212 114 170 246 245 237 225 224 231 238 212 225 227 254 258 216 259 294 294
227 241 252 264 284 301 313 319 321 322 320 319 313 314 298 206 221 306 275 287 186 190 210 276 285 286 345 291 270 313 39 301 297 246 243 127 192 222 237 225 216 220 208 229 228 229 232 227 240 247 208 230 248 256
225 233 253 271 285 303 318 324 326 327 326 323 334 343 327 147 323 214 250 307 348 235 228 257 288 265 19 295 287 312 339 253 283 251 291 205 246 255 287 260 257 256 221 226 205 225 219 229 225 241 221 215 214 218
223 233 247 266 287 307 317 324 331 335 338 2 9 284 312 323 242 229 275 215 173 249 207 240 223 253 256 232 253 220 283 258 277 289 293 277 282 334 324 309 282 259 251 243 225 215 211 196 217 226 227 212 197 195
223 234 247 267 287 306 314 325 330 337 336 324 297 298 303 322 236 254 273 290 204 261 205 222 243 207 267 235 244 252 245 253 252 339 272 257 267 251 281 285 278 270 259 256 218 223 223 204 224 217 201 217 204 196
225 235 249 267 288 302 310 320 321 313 322 328 252 298 68 270 288 218 212 193 246 213 238 227 286 250 307 246 258 281 289 248 329 248 271 241 286 250 248 266 271 269 258 250 239 222 213 214 180 164 195 222 215 184
225 234 252 272 287 290 300 318 323 331 296 297 279 283 187 234 237 209 224 226 238 220 267 224 249 241 256 294 291 265 270 307 331 309 257 276 301 309 333 329 306 299 280 267 233 214 201 187 169 169 173 186 199 181
219 234 260 287 279 250 258 265 300 321 268 258 199 242 228 238 270 269 261 259 275 245 255 303 250 216 273 276 260 305 314 291 228 256 271 307 309 314 319 321 314 309 284 310 150 164 172 168 177 170 178 184 183 176
207 237 249 194 195 296 281 281 281 228 255 222 246 275 260 278 296 326 307 269 265 279 302 78 309 283 275 261 269 241 273 292 300 300 299 304 310 316 328 335 326 327 302 121 128 138 142 170 187 164 162 174 168 144
193 214 179 186 270 302 256 215 222 219 228 243 255 227 244 253 246 255 243 267 174 52 288 35 310 251 301 306 318 347 281 298 298 305 307 314 325 328 337 340 334 3 333 88 114 110 169 202 136 159 185 136 201 149
196 174 182 232 310 177 188 213 250 253 243 235 243 254 221 224 254 278 258 238 170 196 182 224 164 294 262 252 274 249 287 299 303 303 308 314 329 334 331 339 355 6 19 45 87 168 161 146 139 133 119 187 82 54
178 169 180 206 6 221 167 230 198 259 252 252 255 245 229 250 245 255 269 252 216 207 198 280 242 211 234 228 248 257 276 288 299 309 309 312 321 335 329 326 17 65 51 44 46 71 89 114 131 173 145 103 60 79
181 186 180 230 297 81 261 251 216 239 266 251 268 273 225 232 249 255 267 248 185 176 181 221 222 222 205 244 231 234 252 290 299 320 317 321 338 341 337 302 317 85 73 58 60 67 65 66 62 149 176 164 145 145
204 221 219 212 211 225 240 284 272 237 273 262 267 258 264 303 254 240 253 179 174 205 228 222 227 234 230 255 275 256 262 244 275 250 278 304 321 329 319 6 81 53 46 66 70 36 84 82 70 68 86 103 97 141
147 163 140 181 227 234 237 225 220 273 288 261 311 209 276 283 255 234 193 144 228 251 231 242 239 239 251 260 265 258 264 283 275 258 271 265 296 335 356 343 6 49 24 115 117 108 79 101 95 88 95 92 97 93
147 163 178 176 207 227 261 182 221 247 243 247 327 285 262 267 248 346 281 209 31 325 309 302 313 290 242 264 277 283 292 285 277 255 284 311 320 7 26 41 52 66 63 39 80 78 78 100 99 105 109 102 101 87
136 166 196 205 195 256 284 243 212 259 259 262 271 283 292 255 328 24 258 320 260 300 329 349 353 352 357 348 323 305 327 324 294 294 302 187 50 27 44 59 61 66 83 102 101 93 86 92 100 95 100 87 81 82
106 254 141 256 250 232 246 260 225 244 262 267 267 264 270 1 306 269 241 241 263 266 306 326 355 4 320 292 292 310 355 4 300 328 21 124 110 80 63 64 61 64 101 97 80 86 83 82 80 79 84 97 98 91
210 217 177 218 218 192 228 254 186 221 229 247 241 274 354 350 289 253 235 212 235 239 305 356 334 323 322 312 330 334 330 326 319 225 134 154 134 136 127 93 60 51 92 114 114 96 89 92 94 93 91 97 104 107
228 237 230 230 212 219 277 283 259 197 256 246 257 311 342 264 249 251 261 238 247 251 296 321 310 252 263 296 315 330 345 8 157 122 99 86 83 111 132 124 114 108 119 117 116 112 109 108 106 104 106 111 115 117
241 229 199 230 208 219 219 265 255 239 241 213 98 253 242 227 252 242 221 252 243 296 299 302 297 282 277 285 309 342 4 112 114 106 92 73 77 106 114 113 113 117 117 120 123 126 123 121 123 126 126 124 131 133
237 237 162 248 236 221 211 200 221 242 197 154 193 237 247 236 242 244 281 286 288 281 281 290 293 285 280 283 262 225 224 195 132 99 90 88 78 88 120 123 122 118 118 121 116 123 121 121 122 122 127 130 129 128
245 178 196 239 193 226 236 191 229 238 211 208 214 289 283 266 276 285 279 274 261 253 257 266 272 270 265 269 258 203 194 197 184 144 141 135 136 134 132 126 121 121 123 119 118 119 121 120 119 120 125 131 135 138
226 151 185 219 259 244 242 256 252 241 239 235 221 229 268 302 304 293 262 258 251 246 242 252 267 258 237 227 184 136 108 147 149 143 135 132 134 137 137 136 132 132 132 129 127 127 130 133 138 146 151 157 165 169
188 200 185 199 250 267 25 345 279 268 270 268 270 224 267 249 257 277 274 238 191 195 234 239 193 181 173 153 159 152 135 138 135 127 127 135 140 142 145 151 148 145 147 150 151 152 151 153 165 173 182 192 201 207
196 197 191 230 231 186 335 345 328 305 277 264 268 200 207 213 250 271 5 11 211 170 150 147 119 129 129 127 128 131 130 129 130 132 134 137 139 144 153 162 170 176 182 195 201 205 211 194 157 153 153 176 175 172